Location: Bacea
(45.9500°N, 22.6667°E)
Time: 09:38:29
(UTC+00:00)

COSMO-SKYMED 1 - Pass Details

Date: 16 October 2021
Orbit: 621 x 623 km, 97.9° (Epoch: 07 December)

Event Time Altitude Azimuth Distance (km) Brightness Sun altitude
Rises 17:00:59 0° 9° (N) 2,917 5.9 -14.6°
Reaches altitude 10° 17:03:13 10° 5° (N) 2,006 5.1 -15.0°
Maximum altitude 17:07:29 57° 288° (WNW) 738 3.3 -15.7°
Drops below altitude 10° 17:11:44 10° 209° (SSW) 1,989 5.5 -16.4°
Sets 17:13:56 0° 206° (SSW) 2,891 6.3 -16.8°
